This is the latest recevied weather packets stored in our database for station/object SA7AHC. If no packets are shown the sender has not sent any weather packets the latest 10 day(s).
| Time | Temp. | Humidity | Pressure | Rain* | Wind** | Luminosity | Snow |
|---|---|---|---|---|---|---|---|
| 1777494787 | 5° C | 64% | 1029.8 hPa | 0 mm | - | 0 W/m² | - |
| 1777494183 | 5° C | 64% | 1029.8 hPa | 0 mm | - | 0 W/m² | - |
| 1777493584 | 5.56° C | 61% | 1029.9 hPa | 0 mm | - | 0 W/m² | - |
| 1777492984 | 5.56° C | 61% | 1029.5 hPa | 0 mm | - | 0 W/m² | - |
| 1777492381 | 5.56° C | 60% | 1029.5 hPa | 0 mm | - | 0 W/m² | - |
| 1777491786 | 6.11° C | 58% | 1029.4 hPa | 0 mm | - | 0 W/m² | - |
| 1777491180 | 6.67° C | 56% | 1029.5 hPa | 0 mm | - | 0 W/m² | - |
| 1777490580 | 6.67° C | 55% | 1029.5 hPa | 0 mm | - | 0 W/m² | - |
| 1777489982 | 6.67° C | 55% | 1029.5 hPa | 0 mm | - | 0 W/m² | - |
| 1777489376 | 7.22° C | 54% | 1029.4 hPa | 0 mm | - | 0 W/m² | - |
| 1777488772 | 7.78° C | 54% | 1029.4 hPa | 0 mm | - | 0 W/m² | - |
| 1777488172 | 7.78° C | 54% | 1029.2 hPa | 0 mm | - | 0 W/m² | - |
| 1777487569 | 8.33° C | 52% | 1029.3 hPa | 0 mm | - | 0 W/m² | - |
| 1777486958 | 8.89° C | 51% | 1029.2 hPa | 0 mm | - | 9 W/m² | - |
| 1777486361 | 9.44° C | 50% | 1029.3 hPa | 0 mm | - | 12 W/m² | - |
| 1777485756 | 9.44° C | 49% | 1029.3 hPa | 0 mm | - | 12 W/m² | - |
| 1777485156 | 10.56° C | 48% | 1029.3 hPa | 0 mm | - | 14 W/m² | - |
| 1777484552 | 11.11° C | 48% | 1029.3 hPa | 0 mm | - | 18 W/m² | - |
| 1777483948 | 11.67° C | 47% | 1029.3 hPa | 0 mm | - | 23 W/m² | - |
| 1777483349 | 12.22° C | 44% | 1029.2 hPa | 0 mm | - | 30 W/m² | - |
| 1777482747 | 13.89° C | 41% | 1029.3 hPa | 0 mm | - | 54 W/m² | - |
| 1777482145 | 14.44° C | 37% | 1029.3 hPa | 0 mm | - | 84 W/m² | - |
| 1777481544 | 14.44° C | 36% | 1029.2 hPa | 0 mm | - | 139 W/m² | - |
| 1777480947 | 14.44° C | 35% | 1029.3 hPa | 0 mm | - | 139 W/m² | - |
| 1777480347 | 15° C | 35% | 1029.3 hPa | 0 mm | - | 81 W/m² | - |
* Rain latest hour (hover to see other rain measurements)
** Current wind speed in m/s (hover to see current wind gust speed)